WetterOnline ( https://www.wetteronline.de )

Wetter aktuell Erlenbach

Aktuelles Wetter: Waibstadt (237m)

6-stündlich | Neueste Meldungen
Ortszeit Temperatur Wetter
Do, 16.09. 20:00 15.6° C wolkig
Do, 16.09. 14:00 17.2° C bedeckt
Do, 16.09. 8:00 15.5° C Sprühregen
Do, 16.09. 2:00 17.7° C bewölkt
Mi, 15.09. 20:00 19.3° C bedeckt
Mi, 15.09. 14:00 20.4° C leichter Regen
Mi, 15.09. 8:00 17.6° C leichter Regen
Mi, 15.09. 2:00 17.7° C bewölkt
Ortszeit Temperatur Wetter
Do, 16.09. 22:00 13.7° C bedeckt
Do, 16.09. 21:50 13.7° C bedeckt
Do, 16.09. 21:40 13.7° C bedeckt
Do, 16.09. 21:30 13.9° C bedeckt
Do, 16.09. 21:20 13.9° C bedeckt
Do, 16.09. 21:10 14.1° C bedeckt
Do, 16.09. 21:00 14.2° C bedeckt
Do, 16.09. 20:30 14.6° C wolkig
Do, 16.09. 20:00 15.6° C wolkig
Do, 16.09. 19:30 15.1° C wolkig
Do, 16.09. 19:00 16.3° C wolkenlos
Ortszeit Relative Feuchte Sichtweite
Do, 16.09. 20:00 72% 21 km
Do, 16.09. 14:00 75% 45 km
Do, 16.09. 8:00 98% 2.5 km
Do, 16.09. 2:00 93% 40 km
Mi, 15.09. 20:00 83% 45 km
Mi, 15.09. 14:00 88% 23 km
Mi, 15.09. 8:00 99% 9 km
Mi, 15.09. 2:00 95% 19 km
Ortszeit Relative Feuchte Sichtweite
Do, 16.09. 22:00 87% 60 km
Do, 16.09. 21:50 87% -
Do, 16.09. 21:40 87% -
Do, 16.09. 21:30 86% 40 km
Do, 16.09. 21:20 86% -
Do, 16.09. 21:10 84% -
Do, 16.09. 21:00 83% 50 km
Do, 16.09. 20:30 78% 60 km
Do, 16.09. 20:00 72% 21 km
Do, 16.09. 19:30 77% 65 km
Do, 16.09. 19:00 69% 65 km
Ortszeit Niederschlagsmenge Niederschlagsart
Do, 16.09. 20:00 0.1 l/m2 in 12 Std. Niederschlag
Do, 16.09. 14:00 0.1 l/m2 in 6 Std. Regen
Do, 16.09. 8:00 3 l/m2 in 12 Std. Regen
Do, 16.09. 2:00 0.0 l/m2 in 6 Std. -
Mi, 15.09. 20:00 7 l/m2 in 12 Std. Regen
Mi, 15.09. 14:00 7 l/m2 in 6 Std. Regen
Mi, 15.09. 8:00 2 l/m2 in 12 Std. Regen
Mi, 15.09. 2:00 0.1 l/m2 in 6 Std. Regen
Ortszeit Niederschlagsmenge Niederschlagsart
Do, 16.09. 22:00 0.0 l/m2 in 1 Std. -
Do, 16.09. 21:50 keine Meldung -
Do, 16.09. 21:40 keine Meldung -
Do, 16.09. 21:30 0.0 l/m2 in 1 Std. -
Do, 16.09. 21:20 keine Meldung -
Do, 16.09. 21:10 keine Meldung -
Do, 16.09. 21:00 0.0 l/m2 in 1 Std. -
Do, 16.09. 20:30 0.0 l/m2 in 1 Std. -
Do, 16.09. 20:00 0.0 l/m2 in 1 Std. Niederschlag
Do, 16.09. 19:30 0.0 l/m2 in 1 Std. -
Do, 16.09. 19:00 0.0 l/m2 in 1 Std. -
Ortszeit Stärke Spitze Richtung
km/h Bft. km/h Grad Sektor
Do, 16.09. 20:00 0 0 25 - -
Do, 16.09. 14:00 11 2 22 330° NW
Do, 16.09. 8:00 7 2 25 330° NW
Do, 16.09. 2:00 7 2 25 220° SW
Mi, 15.09. 20:00 9 2 30 240° SW
Mi, 15.09. 14:00 17 3 33 240° SW
Mi, 15.09. 8:00 4 1 11 240° SW
Mi, 15.09. 2:00 4 1 7 80° O
Ortszeit Stärke Spitze Richtung
km/h Bft. km/h Grad Sektor
Do, 16.09. 22:00 2 1 7 120° SO
Do, 16.09. 21:50 2 1 - 120° SO
Do, 16.09. 21:40 2 1 - 40° NO
Do, 16.09. 21:30 2 1 7 110° O
Do, 16.09. 21:20 2 1 - 110° O
Do, 16.09. 21:10 4 1 - 270° W
Do, 16.09. 21:00 2 1 6 270° W
Do, 16.09. 20:30 0 0 4 - -
Do, 16.09. 20:00 0 0 7 - -
Do, 16.09. 19:30 4 1 7 290° W
Do, 16.09. 19:00 4 1 25 350° N
Ortszeit Untergrenze Bedeckung Gattung
total tief tief mittel hoch
Do, 16.09. 20:00 1380 m 6/8 6/8 - - -
Do, 16.09. 14:00 630 m 8/8 8/8 - - -
Do, 16.09. 8:00 60 m 8/8 8/8 - - -
Do, 16.09. 2:00 690 m 8/8 7/8 - - -
Mi, 15.09. 20:00 1230 m 8/8 8/8 - - -
Mi, 15.09. 14:00 450 m 8/8 8/8 - - -
Mi, 15.09. 8:00 630 m 7/8 7/8 - - -
Mi, 15.09. 2:00 1800 m 8/8 5/8 - - -
Ortszeit Bedeckungsgrad in Achtel und Wolkenuntergrenze
Do, 16.09. 22:00 8(1440m)
Do, 16.09. 21:50 8(1440m)
Do, 16.09. 21:40 8(1440m)
Do, 16.09. 21:30 8(1440m)
Do, 16.09. 21:20 8(1440m)
Do, 16.09. 21:10 8(1440m)
Do, 16.09. 21:00 8(1440m)
Do, 16.09. 20:30 5(1440m)
Do, 16.09. 20:00 6(1380m)
Do, 16.09. 19:30 5(1380m)
Do, 16.09. 19:00 keine Wolken
Ortszeit Luftdruck NN (hPa) Tendenz (hPa in 3 Std.)
Do, 16.09. 20:00 1018 + 0,7
Do, 16.09. 14:00 1017 + 0,3
Do, 16.09. 8:00 1015 + 1,0
Do, 16.09. 2:00 1014 - 0,1
Mi, 15.09. 20:00 1013 + 0,1
Mi, 15.09. 14:00 1013 - 0,4
Mi, 15.09. 8:00 1013 + 0,2
Mi, 15.09. 2:00 1014 - 0,4
Ortszeit Luftdruck NN (hPa) Tendenz (hPa in 3 Std.)
Do, 16.09. 22:00 1018 + 1,0
Do, 16.09. 21:50 1018 keine Meldung
Do, 16.09. 21:40 1019 keine Meldung
Do, 16.09. 21:30 1019 + 1,2
Do, 16.09. 21:20 1019 keine Meldung
Do, 16.09. 21:10 1018 keine Meldung
Do, 16.09. 21:00 1018 + 1,1
Do, 16.09. 20:30 1018 + 0,8
Do, 16.09. 20:00 1018 + 0,7
Do, 16.09. 19:30 1017 + 0,5
Do, 16.09. 19:00 1017 + 0,5
Ortszeit Schneehöhe (cm)
Do, 16.09. 20:00 -
Do, 16.09. 14:00 -
Do, 16.09. 8:00 -
Do, 16.09. 2:00 -
Mi, 15.09. 20:00 -
Mi, 15.09. 14:00 -
Mi, 15.09. 8:00 -
Mi, 15.09. 2:00 -
Ortszeit Schneehöhe (cm)
Do, 16.09. 22:00 -
Do, 16.09. 21:50 -
Do, 16.09. 21:40 -
Do, 16.09. 21:30 -
Do, 16.09. 21:20 -
Do, 16.09. 21:10 -
Do, 16.09. 21:00 -
Do, 16.09. 20:30 -
Do, 16.09. 20:00 -
Do, 16.09. 19:30 -
Do, 16.09. 19:00 -
Link zu dieser Seite / Seite empfehlen

Das Wetter in ...